Regional Weather Roundup
Issued by NWS

Home | Current Version | Previous Version | Graphics & Text | Print | Product List | Glossary On
Versions: 1 2 3 4 5 6 7 8 9 10 11 12 13 14 15 16 17 18 19 20 21 22 23 24 25 26 27
000
ASUS45 KCYS 082310
RWRWY

WYOMING REGIONAL WEATHER ROUNDUP
NATIONAL WEATHER SERVICE CHEYENNE WY
400 PM MST THU DEC 08 2016

NOTE:  "FAIR" INDICATES FEW OR NO CLOUDS BELOW 12,000 FEET
WITH NO SIGNIFICANT WEATHER AND/OR OBSTRUCTIONS TO VISIBILITY.

WYZ001-090000-
YELLOWSTONE NATIONAL PARK

CITY           SKY/WX    TMP DP  RH WIND       PRES   REMARKS
LK YELLOWSTONE   N/A      7  -5  57 CALM      30.03F
W YELLOWSTONE  NOT AVBL

$$
WYZ002>013-054>058-071-098>099-090000-
NORTHERN WYOMING

CITY           SKY/WX    TMP DP  RH WIND       PRES   REMARKS
JACKSON        CLOUDY     1  -4  78 CALM      30.13S
CODY           FAIR       4  -5  66 CALM      30.20F
GREYBULL       FAIR      12  -3  51 SE6       30.29F WCI   3
WORLAND        FAIR       9   1  70 N5        30.25F WCI   1
SHERIDAN       FAIR       5  -4  66 CALM      30.33F
BUFFALO        FAIR       4  -4  69 SE10      30.24F WCI -11
GILLETTE       FAIR       5  -3  69 SE7       30.32F WCI  -7
HULETT         FAIR       9  -2  61 CALM      30.37S
NEWCASTLE      FAIR       9  -4  56 CALM      30.38S

$$
WYZ014>020-022>026-101>103-090000-
CENTRAL WYOMING

CITY           SKY/WX    TMP DP  RH WIND       PRES   REMARKS
BIG PINEY      CLOUDY    10  -1  61 E3        30.13F
PINEDALE       CLOUDY    10   0  61 CALM      30.13S
DUBOIS         CLOUDY     9  -2  61 SE8       30.01S WCI  -4
LANDER         FAIR       7  -1  70 SE3       30.15F
RIVERTON       FAIR      12   0  58 SE5       30.17F WCI   4
CASPER         FAIR      -7 -12  79 E3        30.22F
DOUGLAS        FAIR      -1  -7  75 NW3       30.28F

$$
WYZ021-027>030-104>119-090000-
SOUTHERN WYOMING

CITY           SKY/WX    TMP DP  RH WIND       PRES   REMARKS
EVANSTON       LGT SNOW  10   3  73 E10       30.08F WCI  -4
FORT BRIDGER   SNOW       6   3  84 CALM      30.14F VSB 1/2
ROCK SPRINGS   LGT SNOW  10   3  73 CALM      30.14S
DIXON          LGT SNOW  22  13  69 SW9       30.21S WCI  12
RAWLINS        CLOUDY    19   2  47 W7        30.13F WCI  10
SARATOGA       MOCLDY    19   7  58 S8        30.13F WCI   9
LARAMIE        FAIR      10  -4  53 S10       30.10S WCI  -4
CHEYENNE       FAIR       6   2  83 S13       30.22S WCI -10
TORRINGTON     FAIR      14   0  53 E10       30.36S WCI   1
PINE BLUFFS    CLOUDY    12   5  73 SW7       30.31S WCI   2

$$




USA.gov is the U.S. government's official web portal to all federal, state and local government web resources and services.